| time (UTC) | temp F | wind direction | speed MPH | gust MPH | rain 1hr in | rain 24hr in | rain mn in | humidity % | barometer mb |
| 20260502223059 | 41 | 13 | 4.0 | 12.0 | 0.00 | 0.04 | 0.00 | 51 | 1016.1 |
| 20260502221554 | 42 | 300 | 9.0 | 13.0 | 0.00 | 0.04 | 0.00 | 54 | 1016.0 |
| 20260502220051 | 43 | 312 | 7.0 | 11.0 | 0.00 | 0.04 | 0.00 | 57 | 1015.9 |
| 20260502214600 | 43 | 253 | 7.0 | 11.0 | 0.00 | 0.06 | 0.00 | 58 | 1015.8 |
| 20260502213041 | 43 | 305 | 3.0 | 10.0 | 0.00 | 0.06 | 0.00 | 51 | 1015.7 |
| 20260502211536 | 44 | 323 | 7.0 | 14.0 | 0.00 | 0.06 | 0.00 | 59 | 1015.6 |
| 20260502210041 | 44 | 340 | 9.0 | 15.0 | 0.00 | 0.06 | 0.00 | 60 | 1015.6 |
| 20260502204527 | 44 | 297 | 9.0 | 14.0 | 0.00 | 0.07 | 0.00 | 59 | 1015.5 |
| 20260502203023 | 44 | 319 | 6.0 | 11.0 | 0.00 | 0.07 | 0.00 | 51 | 1015.6 |
| 20260502201522 | 44 | 360 | 4.0 | 8.0 | 0.00 | 0.07 | 0.00 | 53 | 1015.5 |
| 20260502200014 | 44 | 341 | 5.0 | 10.0 | 0.00 | 0.07 | 0.00 | 58 | 1015.6 |
| 20260502194511 | 45 | 338 | 6.0 | 12.0 | 0.00 | 0.07 | 0.00 | 57 | 1015.5 |
| 20260502193004 | 45 | 314 | 4.0 | 12.0 | 0.00 | 0.07 | 0.00 | 56 | 1015.7 |
| 20260502191600 | 45 | 264 | 8.0 | 15.0 | 0.00 | 0.07 | 0.00 | 54 | 1015.8 |
| 20260502190056 | 46 | 323 | 9.0 | 14.0 | 0.00 | 0.07 | 0.00 | 57 | 1015.6 |
| 20260502184551 | 46 | 275 | 7.0 | 18.0 | 0.00 | 0.07 | 0.00 | 56 | 1015.7 |
| 20260502183048 | 46 | 284 | 8.0 | 15.0 | 0.00 | 0.07 | 0.00 | 56 | 1015.7 |
| 20260502181541 | 46 | 331 | 8.0 | 13.0 | 0.00 | 0.07 | 0.00 | 56 | 1015.7 |
| 20260502163018 | 46 | 289 | 8.0 | 14.0 | 0.00 | 0.07 | 0.00 | 60 | 1015.7 |
| 20260502161506 | 45 | 265 | 7.0 | 16.0 | 0.00 | 0.07 | 0.00 | 58 | 1015.8 |
| 20260502151556 | 44 | 265 | 6.0 | 18.0 | 0.00 | 0.07 | 0.00 | 57 | 1016.0 |
| 20260502123059 | 39 | 285 | 5.0 | 14.0 | 0.00 | 0.07 | 0.00 | 3 | 1017.1 |
| 20260502121555 | 39 | 279 | 4.0 | 11.0 | 0.00 | 0.07 | 0.00 | 1 | 1017.2 |
| 20260502120106 | 38 | 288 | 5.0 | 13.0 | 0.00 | 0.07 | 0.00 | 1 | 1017.1 |
| 20260502114610 | 38 | 252 | 6.0 | 11.0 | 0.00 | 0.07 | 0.00 | 1 | 1017.1 |
| 20260502113044 | 38 | 290 | 4.0 | 9.0 | 0.00 | 0.07 | 0.00 | 1 | 1017.0 |
| 20260502111537 | 37 | 272 | 5.0 | 10.0 | 0.00 | 0.07 | 0.00 | 1 | 1016.9 |
| 20260502110033 | 36 | 269 | 5.0 | 9.0 | 0.00 | 0.07 | 0.00 | 1 | 1016.8 |
| 20260502104528 | 36 | 284 | 5.0 | 10.0 | 0.00 | 0.07 | 0.00 | 1 | 1016.7 |
| 20260502103024 | 36 | 285 | 4.0 | 8.0 | 0.00 | 0.07 | 0.00 | 1 | 1016.5 |
| 20260502101520 | 36 | 275 | 3.0 | 8.0 | 0.00 | 0.07 | 0.00 | 1 | 1016.4 |
| 20260502091502 | 37 | 275 | 2.0 | 4.0 | 0.00 | 0.07 | 0.00 | 1 | 1016.0 |
| 20260502071525 | 40 | 224 | 2.0 | 7.0 | 0.00 | 0.07 | 0.00 | 1 | 1014.9 |
| 20260502070023 | 40 | 227 | 0.0 | 2.0 | 0.00 | 0.07 | 0.00 | 1 | 1014.9 |
| 20260502064535 | 41 | 265 | 1.0 | 3.0 | 0.00 | 0.07 | 0.00 | 1 | 1015.0 |
| 20260502063019 | 40 | 281 | 3.0 | 6.0 | 0.00 | 0.07 | 0.00 | 1 | 1015.1 |
| 20260502061508 | 40 | 280 | 3.0 | 8.0 | 0.00 | 0.07 | 0.00 | 1 | 1015.2 |
| 20260502060003 | 40 | 273 | 2.0 | 8.0 | 0.00 | 0.07 | 0.00 | 1 | 1015.0 |
| 20260502054559 | 40 | 282 | 4.0 | 8.0 | 0.00 | 0.07 | 0.00 | 1 | 1015.1 |
| 20260502053059 | 40 | 315 | 3.0 | 7.0 | 0.00 | 0.07 | 0.00 | 1 | 1015.1 |
| 20260502051550 | 41 | 272 | 2.0 | 8.0 | 0.00 | 0.07 | 0.00 | 1 | 1015.1 |
| 20260502050047 | 41 | 292 | 4.0 | 8.0 | 0.00 | 0.07 | 0.00 | 1 | 1015.1 |
| 20260502044541 | 41 | 266 | 3.0 | 5.0 | 0.00 | 0.07 | 0.00 | 1 | 1015.2 |
| 20260502043053 | 41 | 277 | 2.0 | 4.0 | 0.00 | 0.07 | 0.00 | 1 | 1015.1 |
| 20260502041539 | 41 | 278 | 1.0 | 2.0 | 0.00 | 0.07 | 0.00 | 1 | 1015.0 |
| 20260502040027 | 41 | 214 | 0.0 | 2.0 | 0.00 | 0.07 | 0.00 | 1 | 1015.0 |
| 20260502034527 | 41 | 191 | 0.0 | 1.0 | 0.00 | 0.07 | 0.07 | 1 | 1014.9 |
| 20260502033029 | 41 | 191 | 0.0 | 1.0 | 0.00 | 0.07 | 0.07 | 1 | 1014.9 |
| 20260502031527 | 41 | 191 | 0.0 | 1.0 | 0.00 | 0.07 | 0.07 | 1 | 1014.9 |
| 20260502030026 | 41 | 113 | 0.0 | 1.0 | 0.00 | 0.07 | 0.07 | 1 | 1015.0 |
| 20260502024531 | 41 | 112 | 0.0 | 1.0 | 0.00 | 0.08 | 0.07 | 1 | 1015.0 |
| 20260502023025 | 41 | 113 | 0.0 | 1.0 | 0.00 | 0.08 | 0.07 | 1 | 1015.0 |
| 20260502021524 | 41 | 112 | 0.0 | 1.0 | 0.00 | 0.08 | 0.07 | 1 | 1015.0 |
| 20260502020024 | 41 | 78 | 0.0 | 1.0 | 0.00 | 0.08 | 0.07 | 1 | 1015.1 |
| 20260502014525 | 41 | 89 | 0.0 | 1.0 | 0.00 | 0.08 | 0.07 | 1 | 1014.8 |
| 20260502013023 | 41 | 101 | 0.0 | 0.0 | 0.01 | 0.08 | 0.07 | 1 | 1014.8 |
| 20260502011523 | 41 | 101 | 0.0 | 1.0 | 0.01 | 0.08 | 0.07 | 1 | 1014.6 |
| 20260502010028 | 41 | 101 | 0.0 | 1.0 | 0.01 | 0.08 | 0.07 | 1 | 1014.3 |
| 20260502004528 | 41 | 63 | 1.0 | 2.0 | 0.01 | 0.08 | 0.07 | 1 | 1014.2 |
| 20260502003023 | 41 | 13 | 1.0 | 4.0 | 0.01 | 0.07 | 0.06 | 1 | 1014.2 |
| 20260502001518 | 41 | 21 | 1.0 | 3.0 | 0.01 | 0.07 | 0.06 | 1 | 1014.0 |
| 20260502000012 | 41 | 12 | 2.0 | 8.0 | 0.02 | 0.07 | 0.06 | 1 | 1013.9 |
| 20260501234508 | 42 | 348 | 3.0 | 6.0 | 0.02 | 0.07 | 0.06 | 1 | 1013.8 |
| 20260501233003 | 42 | 360 | 3.0 | 6.0 | 0.01 | 0.06 | 0.05 | 1 | 1013.6 |
| 20260501231612 | 42 | 51 | 4.0 | 9.0 | 0.02 | 0.06 | 0.05 | 1 | 1013.5 |
| 20260501230054 | 43 | 341 | 4.0 | 8.0 | 0.01 | 0.05 | 0.04 | 1 | 1013.5 |
| 20260501224554 | 44 | 338 | 3.0 | 6.0 | 0.01 | 0.05 | 0.04 | 1 | 1013.4 |